Weather Roundup
Issued by NWS Chicago, IL

Home | Current Version | Previous Version | Graphics & Text | Print | Product List | Glossary On
Versions: 1 2 3 4 5 6 7 8 9 10 11 12 13 14 15 16 17 18 19 20 21 22 23 24 25 26 27 28 29 30 31 32 33 34 35 36 37 38 39 40 41 42 43 44 45 46 47 48 49 50
000
NZUS59 KLOT 261603
HRRLOT

CHICAGO AREA WEATHER ROUNDUP
NATIONAL WEATHER SERVICE CHICAGO/ROMEOVILLE IL
1100 AM CDT SUN MAR 26 2017

NOTE: "FAIR" INDICATES FEW OR NO CLOUDS BELOW 12,000 FEET WITH NO
SIGNIFICANT WEATHER AND/OR OBSTRUCTIONS TO VISIBILITY.

* THESE STATIONS ARE NOT UNDER NWS QUALITY CONTROL. THEY ALSO MAY NOT
  REPORT WEATHER SUCH AS PRECIPITATION OR FOG.

ILZ005-006-012>014-019>023-261700-
NORTHEAST ILLINOIS

CITY           SKY/WX    TMP DP  RH WIND       PRES   REMARKS
OHARE          RAIN      56  53  90 S7        29.83F FOG
MIDWAY         CLOUDY    58  56  93 S9        29.84F
AURORA         CLOUDY    58  54  86 SW7       29.83F
LANSING*       CLOUDY    58  58  99 S9        29.86S
JOLIET*        CLOUDY    60  56  88 SW8       29.84F
WAUKEGAN       HVY RAIN  45  45 100 E3        29.85S VSB 3/4
DUPAGE AIRPORT CLOUDY    57  56  96 S7        29.83F FOG
WHEELING       CLOUDY    53  53 100 S5        29.85S FOG
MORRIS*        CLOUDY    58  55  88 S9        29.83S
$$

WIZ051-052-058>065-066-070>072-261700-
SOUTHEAST WISCONSIN

CITY           SKY/WX    TMP DP  RH WIND       PRES   REMARKS
MILWAUKEE      LGT RAIN  41  39  93 NE7       29.87F VSB 1/4
KENOSHA*       LGT RAIN  44  43  96 E7        29.85F FOG
RACINE*        LGT RAIN  42  41  96 NE5       29.88S FOG
WAUKESHA       LGT RAIN  39  39 100 NE6       29.87F FOG
WEST BEND      RAIN      41  41 100 E6        29.87F
$$

INZ001>003-010>013-019-020-261700-
NORTHWEST INDIANA

CITY           SKY/WX    TMP DP  RH WIND       PRES   REMARKS
GARY*          CLOUDY    57  55  94 SE8       29.86S
MICHIGAN CITY* NOT AVBL
RENSSELAER*    NOT AVBL
VALPARAISO     CLOUDY    58  56  93 S7        29.87S
$$

LMZ740>746-261700-
SOUTHERN LAKE MICHIGAN

STATION/POSITION TIME  SKY/WX   TEMP WIND        PRES    VSBY
                                AIR  DIR/SP/G
                 (UTC)          (F)  (DEG/KT/KT) (MB)    (MI)
HARRISON CRIB    1540            45  160/ 10/ 11   N/A
BURNHAM HARBOR   1600            46   CALM  /  1   N/A
CALUMET HARBOR   1530            56  150/  7/ 10 1010.4S
BURNS HARBOR     1540            56  170/  8/ 14 1011.9S
MICHIGAN CITY    1540            54  130/  7/ 10   N/A
$$

ABBREVIATIONS USED IN REMARKS
   TC - TEMPERATURE IN CELSIUS
  WCI - WIND CHILL INDEX
   HX - HEAT INDEX
  VSB - VISIBILITY
$$




USA.gov is the U.S. government's official web portal to all federal, state and local government web resources and services.